User: anonymous   Login
Location: *
(43.0833°N, 13.0500°E)
Time: 15:35:44
(UTC+00:00)
Language:

Ariane Rocket - Orbit

View from above orbital plane
View from above orbital plane
View from above satellite
View from above satellite

Ground track
Ground track

The orbit data is extracted from the following two-line orbital elements,

1 23561U 95021B   20017.49945012 +.00000007 +00000-0 +17582-4 0  9992
2 23561 098.7450 054.1990 0006613 353.4746 143.3078 14.37951995296734
Epoch (UTC): 17 January 2020 11:59:12
Eccentricity: 0.0006613
inclination: 98.7450°
perigee height: 760 km
apogee height: 770 km
right ascension of ascending node: 54.1990°
argument of perigee: 353.4746°
revolutions per day: 14.37951995
mean anomaly at epoch: 143.3078°
orbit number at epoch: 29673

The dashed part of the orbit path shows where the satellite is in the earth's shadow,  

DLR